Regional Weather Roundup
Issued by NWS

Home | Current Version | Previous Version | Text Only | Print | Product List | Glossary Off
Versions: 1 2 3 4 5 6 7 8 9 10 11 12 13 14 15 16 17 18 19 20 21 22 23 24 25 26 27 28 29 30 31 32 33 34 35 36 37 38 39 40 41 42 43 44 45 46 47 48 49 50

000
ASUS43 KMKX 061700
RWRWI

WISCONSIN REGIONAL WEATHER ROUNDUP
NATIONAL WEATHER SERVICE MILWAUKEE/SULLIVAN WI
1200 PM CDT MON JUL 06 2015

NOTE: "FAIR" INDICATES FEW OR NO CLOUDS BELOW 12,000 FEET WITH NO
SIGNIFICANT WEATHER AND/OR OBSTRUCTIONS TO VISIBILITY.

WIZ001-002-006>008-014>016-023>028-061800-
NORTHWEST WISCONSIN

CITY           SKY/WX    TMP DP  RH WIND       PRES   REMARKS
SUPERIOR ARPT  RAIN      60  59  97 NE6       29.90S
ASHLAND        LGT RAIN  60  59  96 N14       29.89R FOG
HAYWARD        HVY RAIN  63  61  93 N12       29.86R FOG
SIREN          RAIN      60  58  94 N21G26    29.88R
CUMBERLAND     LGT RAIN  68  66  94 S7        29.82F
RICE LAKE      LGT RAIN  69  67  93 SE6       29.83F
CHETEK         LGT RAIN  70  69  98 CALM      29.82F
LADYSMITH      HVY RAIN  71  69  93 S3        29.85S
EAU CLAIRE     CLOUDY    73  70  90 S8        29.79F
MENOMONIE      RAIN      70  69  99 CALM      29.80F
NEW RICHMOND   DRIZZLE   71  70  97 NW13      29.82S
OSCEOLA        HVY RAIN  65  65 100 N14G25    29.88R
$$

WIZ003>005-009-010-017-018-061800-
NORTH CENTRAL WISCONSIN

CITY           SKY/WX    TMP DP  RH WIND       PRES   REMARKS
MANITOWISH WTR RAIN      68  68 100 S3        29.84F
ARBOR VITAE    DRIZZLE   70  67  93 S7        29.84F
WOODRUFF       DRIZZLE   70  67  93 S7        29.84F
RHINELANDER    CLOUDY    70  67  90 S9        29.85F
EAGLE RIVER    LGT RAIN  68  68 100 SE3       29.85F
LAND O LAKES   LGT RAIN  69  67  96 SE5       29.86F
PHILLIPS       DRIZZLE   69  68  97 S6        29.83S
TOMAHAWK       LGT RAIN  69  67  94 S3        29.85S
MEDFORD        CLOUDY    70  70  99 S9        29.83F FOG
MERRILL        CLOUDY    71  70  98 S5        29.85F FOG
$$

WIZ029-030-035-036-043>047-061800-
CENTRAL WISCONSIN

CITY           SKY/WX    TMP DP  RH WIND       PRES   REMARKS
WAUSAU         LGT RAIN  72  69  90 S8        29.82F
MOSINEE        LGT RAIN  72  72 100 S9        29.85F
MARSHFIELD     CLOUDY    75  68  78 S8        29.84S
STEVENS POINT  CLOUDY    70  68  94 S10       29.85S FOG
WAUPACA        LGT RAIN  75  73  93 SE6       29.87F
WAUTOMA        CLOUDY    73  73 100 S8        29.88R FOG
WISC RAPIDS    CLOUDY    74  69  85 SW12      29.86S
CAMP DOUGLAS   NOT AVBL
$$

WIZ011>013-019>022-031-037>040-048>050-061800-
NORTHEAST WISCONSIN

CITY           SKY/WX    TMP DP  RH WIND       PRES   REMARKS
ANTIGO         RAIN      66  66 100 S3        29.88F
SHAWANO        LGT RAIN  73  69  88 S5        29.87F
OCONTO         CLOUDY    72  72 100 S5        29.87F
STURGEON BAY   CLOUDY    73  64  73 S12       29.90F
GREEN BAY      CLOUDY    75  70  84 S7        29.87F HAZE
MANITOWOC      NOT AVBL
APPLETON       CLOUDY    75  68  78 W6        29.87F
CLINTONVILLE   CLOUDY    72  68  88 S5        29.86F FOG
OSHKOSH        CLOUDY    78  69  73 SW10G21   29.88F HX  80
$$

WIZ032>034-041-042-053>061-061800-
SOUTHWEST WISCONSIN

CITY           SKY/WX    TMP DP  RH WIND       PRES   REMARKS
LA CROSSE      CLOUDY    76  70  82 S8        29.81F
SPARTA         LGT RAIN  75  69  81 S5        29.84F
VIROQUA        CLOUDY    74  72  93 S7        29.85F
BOSCOBEL       LGT RAIN  76  69  79 VRB5      29.84F
PRAIRIE DU CHI LGT RAIN  72  66  81 SE6       29.83F
PLATTEVILLE    CLOUDY    73  71  95 SE10      29.91F
$$

WIZ056-057-062-063-064-067-068-061800-
SOUTH CENTRAL WISCONSIN

CITY           SKY/WX    TMP DP  RH WIND       PRES   REMARKS
REEDSBURG      CLOUDY    74  71  89 S9        29.88F
BARABOO/DELLS  CLOUDY    73  69  86 SW13G21   29.89S FOG
LONE ROCK      NOT AVBL
MINERAL POINT  CLOUDY    73  70  88 S9        29.91F
MADISON        LGT RAIN  73  70  90 SW8G16    29.92S FOG
MIDDLETON      CLOUDY    73  71  93 SW10      29.93S
WATERTOWN      RAIN      76  75  98 SW14G21   29.92R
MONROE         RAIN      70  70 100 SW10      29.95F
JANESVILLE     SHOWER    73  72  94 W18       29.94R
$$

WIZ051-052-058>065-066-070>072-061800-
SOUTHEAST WISCONSIN

CITY           SKY/WX    TMP DP  RH WIND       PRES   REMARKS
MILWAUKEE      CLOUDY    82  68  62 S16G24    29.92F HX  85
WAUKESHA       MOSUNNY   79  68  69 S14       29.93S HX  81
MILWAUKEE/TIMM MOSUNNY   81  66  61 S12G20    29.92F HX  83
RACINE         CLOUDY    77  65  66 S14       29.94F HAZE
BURLINGTON     CLOUDY    79  69  69 S12G23    29.93S HX  82
KENOSHA        CLOUDY    83  69  62 S15G21    29.93F HX  86
FOND DU LAC    CLOUDY    79  70  74 SW13G22   29.89F HX  82
SHEBOYGAN      CLOUDY    79  68  69 S15       29.90F HX  81
WEST BEND      CLOUDY    81  68  65 S13G21    29.91F HX  83
JUNEAU         CLOUDY    76  70  83 S10       29.93S
$$

LSZ147-162-061800-
LAKE SUPERIOR

STATION/POSITION TIME  TEMP    WIND        PRES    WAVE
                       AIR SEA DIR/SP/G            HT/PER
                 (UTC) (F)     (DEG/KT/KT) (MB)    (FT/S)
W MID LAKE BUOY  1550   45 39   30/  8/  8 1011.0R   1
DEVILS ISLAND    1600   60     360/ 10/ 11 1012.2R
PORT WING        1600   60      20/  9/ 18 1012.5
SAXON HARBOR     1600   62      50/ 17/ 21 1010.5S
$$

LMZ867-665-643>646-061800-
LAKE MICHIGAN

STATION/POSITION TIME  TEMP    WIND        PRES    WAVE
                       AIR SEA DIR/SP/G            HT/PER
                 (UTC) (F)     (DEG/KT/KT) (MB)    (FT/S)
CHAMBERS ISLAND  1600   74     140/  6/ 12 1011.5F
S GREEN BAY BUOY 1600   73 69  180/ 10/ 14 1012.7F
N MID LAKE BUOY  1550   60 55  200/ 17/ 19 1012.1F   3/ 4
NORTHPORT PIER   1600   66     140/ 10/ 14 1011.9F
SISTER BAY       1614   74     180/ 16/ 23   N/A
ALGOMA LAKESHORE 1511          210/ 12/ 14   N/A
KEWAUNEE LAKESHO 1600   60     190/ 12/ 15 1011.9F
SHEBOYGAN LAKESH 1600   62     170/ 20/ 22 1012.9F
PORT WASHINGTON  1640   69     200/  7/ 12 1013.5F
ATWATER BUOY     1600   64 60  190/  6/ 10 1014.7F
MILWAUKEE LAKESH 1600   65     140/ 14/ 16   N/A
KENOSHA   LAKESH 1600   65     170/ 12/ 15 1013.9F
$$

TC  - TEMPERATURE IN CELSIUS
VSB - VISIBILITY IN STATUTE MILES
WCI - WIND CHILL INDEX
HX  - HEAT INDEX




USA.gov is the U.S. government's official web portal to all federal, state and local government web resources and services.